Location: Newark
(25.6108°S, 54.5803°W)
Time: 08:07:23
(UTC+00:00)

Courier 1B - Pass Details

Date: 31 October 2020
Orbit: 962 x 1209 km, 28.3° (Epoch: 02 December)

Event Time Altitude Azimuth Distance (km) Brightness Sun altitude
Rises 00:16:09 0° 299° (WNW) 3,852 10.9 -29.8°
Reaches altitude 10° 00:18:50 10° 302° (WNW) 2,935 10.2 -30.2°
Enters shadow 00:24:12 49° 329° (NNW) 1,422 8.2 -31.2°
Maximum altitude 00:26:00 63° 22° (NNE) 1,264 - -31.5°
Drops below altitude 10° 00:33:37 10° 100° (E) 3,111 - -32.9°
Sets 00:36:33 0° 103° (ESE) 4,096 - -33.4°
